Time,TemperatureF,DewpointF,PressureIn,WindDirection,WindDirectionDegrees,WindSpeedMPH,WindSpeedGustMPH,Humidity,HourlyPrecipIn,Conditions,Clouds,dailyrainin,SoftwareType,DateUTC
2013-09-21 00:00:00,65.9,60.6,29.74,NW,305,0.0,0.0,83,0.00,,,0.00,Wunderground v.1.15,2013-09-21 04:00:00,
2013-09-21 00:02:00,65.9,60.6,29.74,NW,305,0.0,0.0,83,0.00,,,0.00,Wunderground v.1.15,2013-09-21 04:02:00,
2013-09-21 00:04:00,65.9,60.6,29.74,NW,305,0.0,0.0,83,0.00,,,0.00,Wunderground v.1.15,2013-09-21 04:04:00,
2013-09-21 00:06:00,65.9,60.6,29.74,NW,305,0.0,0.0,83,0.00,,,0.00,Wunderground v.1.15,2013-09-21 04:06:00,
2013-09-21 00:12:00,65.9,60.6,29.74,NW,305,0.0,0.0,83,0.00,,,0.00,Wunderground v.1.15,2013-09-21 04:12:00,
2013-09-21 00:16:00,65.8,60.5,29.74,NW,305,0.0,0.0,83,0.00,,,0.00,Wunderground v.1.15,2013-09-21 04:16:00,
2013-09-21 00:22:00,65.7,60.4,29.74,NW,305,0.0,0.0,83,0.00,,,0.00,Wunderground v.1.15,2013-09-21 04:22:00,
2013-09-21 00:28:00,65.5,60.2,29.74,NW,305,0.0,0.0,83,0.00,,,0.00,Wunderground v.1.15,2013-09-21 04:28:00,
2013-09-21 00:34:00,65.4,60.1,29.74,NW,305,0.0,0.0,83,0.00,,,0.00,Wunderground v.1.15,2013-09-21 04:34:00,
2013-09-21 08:18:00,65.1,59.5,29.67,WNW,295,0.0,0.0,82,0.00,,,0.00,Wunderground v.1.15,2013-09-21 12:18:00,
2013-09-21 08:20:00,65.1,59.5,29.67,WNW,295,0.0,0.0,82,0.00,,,0.00,Wunderground v.1.15,2013-09-21 12:20:00,
2013-09-21 08:26:00,65.3,59.7,29.67,WNW,295,0.0,0.0,82,0.00,,,0.00,Wunderground v.1.15,2013-09-21 12:26:00,
2013-09-21 08:32:00,65.4,59.8,29.67,WNW,295,0.0,0.0,82,0.00,,,0.00,Wunderground v.1.15,2013-09-21 12:32:00,
2013-09-21 08:38:00,65.5,59.9,29.67,WNW,295,0.0,0.0,82,0.00,,,0.00,Wunderground v.1.15,2013-09-21 12:38:00,
2013-09-21 08:44:00,65.6,60.0,29.67,WNW,295,0.0,0.0,82,0.00,,,0.00,Wunderground v.1.15,2013-09-21 12:44:00,
2013-09-21 08:50:00,65.8,60.2,29.67,NW,325,0.0,0.0,82,0.00,,,0.00,Wunderground v.1.15,2013-09-21 12:50:00,
2013-09-21 08:56:00,66.0,60.3,29.67,NW,325,0.0,0.0,82,0.00,,,0.00,Wunderground v.1.15,2013-09-21 12:56:00,
2013-09-21 09:02:00,66.3,60.6,29.67,NW,325,0.0,0.0,82,0.00,,,0.00,Wunderground v.1.15,2013-09-21 13:02:00,
2013-09-21 09:08:00,66.4,60.7,29.67,NNW,328,0.0,0.0,82,0.00,,,0.00,Wunderground v.1.15,2013-09-21 13:08:00,
2013-09-21 09:16:00,66.7,61.4,29.67,NW,326,0.0,0.0,83,0.00,,,0.00,Wunderground v.1.15,2013-09-21 13:16:00,
2013-09-21 09:22:00,66.9,61.6,29.67,NW,326,0.0,0.0,83,0.00,,,0.00,Wunderground v.1.15,2013-09-21 13:22:00,
2013-09-21 09:28:00,67.1,61.8,29.67,NW,326,0.0,0.0,83,0.00,,,0.00,Wunderground v.1.15,2013-09-21 13:28:00,
2013-09-21 09:34:00,67.3,62.0,29.67,NW,326,0.0,0.0,83,0.00,,,0.00,Wunderground v.1.15,2013-09-21 13:34:00,
2013-09-21 09:40:00,67.5,62.2,29.67,NW,326,0.0,0.0,83,0.00,,,0.00,Wunderground v.1.15,2013-09-21 13:40:00,
2013-09-21 09:46:00,67.7,62.3,29.67,NW,326,0.0,0.0,83,0.00,,,0.00,Wunderground v.1.15,2013-09-21 13:46:00,
2013-09-21 09:52:00,67.8,62.8,29.67,NW,326,0.0,0.0,84,0.00,,,0.00,Wunderground v.1.15,2013-09-21 13:52:00,
2013-09-21 09:58:00,68.0,63.0,29.67,NW,326,0.0,0.0,84,0.00,,,0.00,Wunderground v.1.15,2013-09-21 13:58:00,
2013-09-21 10:04:00,68.3,63.3,29.67,NW,326,0.0,0.0,84,0.00,,,0.00,Wunderground v.1.15,2013-09-21 14:04:00,
2013-09-21 10:10:00,68.6,63.6,29.67,NW,326,0.0,0.0,84,0.00,,,0.00,Wunderground v.1.15,2013-09-21 14:10:00,
2013-09-21 10:16:00,68.8,64.1,29.67,NW,326,0.0,0.0,85,0.00,,,0.00,Wunderground v.1.15,2013-09-21 14:16:00,
2013-09-21 10:22:00,68.9,64.2,29.67,NW,326,0.0,0.0,85,0.00,,,0.00,Wunderground v.1.15,2013-09-21 14:22:00,
2013-09-21 10:28:00,69.1,64.7,29.67,NW,326,0.0,0.0,86,0.00,,,0.00,Wunderground v.1.15,2013-09-21 14:28:00,
2013-09-21 10:34:00,69.4,65.0,29.67,NW,326,0.0,1.0,86,0.00,,,0.00,Wunderground v.1.15,2013-09-21 14:34:00,
2013-09-21 10:40:00,69.7,65.7,29.66,NE,51,0.0,0.0,87,0.00,,,0.00,Wunderground v.1.15,2013-09-21 14:40:00,
2013-09-21 10:46:00,70.0,66.0,29.66,NE,54,0.0,0.0,87,0.00,,,0.00,Wunderground v.1.15,2013-09-21 14:46:00,
2013-09-21 10:52:00,70.3,66.2,29.65,NW,314,0.0,0.0,87,0.00,,,0.00,Wunderground v.1.15,2013-09-21 14:52:00,
2013-09-21 10:58:00,70.7,66.6,29.65,SE,127,0.0,1.0,87,0.00,,,0.00,Wunderground v.1.15,2013-09-21 14:58:00,
2013-09-21 11:04:00,71.4,67.3,29.65,East,96,0.0,0.0,87,0.00,,,0.00,Wunderground v.1.15,2013-09-21 15:04:00,
2013-09-21 11:10:00,71.8,67.7,29.65,WSW,249,0.0,0.0,87,0.00,,,0.00,Wunderground v.1.15,2013-09-21 15:10:00,
2013-09-21 11:16:00,72.2,68.1,29.64,West,259,0.0,1.0,87,0.00,,,0.00,Wunderground v.1.15,2013-09-21 15:16:00,
2013-09-21 11:22:00,72.4,68.3,29.64,South,184,0.0,0.0,87,0.00,,,0.00,Wunderground v.1.15,2013-09-21 15:22:00,
2013-09-21 11:28:00,72.5,68.1,29.64,North,11,0.0,3.0,86,0.00,,,0.00,Wunderground v.1.15,2013-09-21 15:28:00,
2013-09-21 11:34:00,72.7,68.3,29.64,NW,326,0.0,1.0,86,0.00,,,0.00,Wunderground v.1.15,2013-09-21 15:34:00,
2013-09-21 11:40:00,72.9,68.1,29.64,ENE,71,0.0,0.0,85,0.00,,,0.00,Wunderground v.1.15,2013-09-21 15:40:00,
2013-09-21 11:46:00,73.4,68.6,29.63,WNW,287,0.0,0.0,85,0.00,,,0.00,Wunderground v.1.15,2013-09-21 15:46:00,
2013-09-21 11:52:00,73.9,69.1,29.63,NW,319,0.0,0.0,85,0.00,,,0.00,Wunderground v.1.15,2013-09-21 15:52:00,
2013-09-21 11:58:00,74.1,69.0,29.63,NW,321,0.0,0.0,84,0.00,,,0.00,Wunderground v.1.15,2013-09-21 15:58:00,
2013-09-21 12:04:00,74.6,69.4,29.63,NW,322,0.0,1.0,84,0.00,,,0.00,Wunderground v.1.15,2013-09-21 16:04:00,
2013-09-21 12:10:00,74.7,69.2,29.62,North,10,0.0,0.0,83,0.00,,,0.00,Wunderground v.1.15,2013-09-21 16:10:00,
2013-09-21 12:16:00,74.9,69.7,29.62,ENE,77,0.0,0.0,84,0.00,,,0.00,Wunderground v.1.15,2013-09-21 16:16:00,
2013-09-21 12:22:00,75.0,69.8,29.62,ENE,78,0.0,0.0,84,0.00,,,0.00,Wunderground v.1.15,2013-09-21 16:22:00,
2013-09-21 12:28:00,75.3,70.1,29.61,ENE,78,0.0,0.0,84,0.00,,,0.00,Wunderground v.1.15,2013-09-21 16:28:00,
2013-09-21 12:34:00,75.7,70.5,29.61,ENE,78,0.0,0.0,84,0.00,,,0.00,Wunderground v.1.15,2013-09-21 16:34:00,
2013-09-21 12:40:00,75.9,70.7,29.60,ENE,78,0.0,0.0,84,0.00,,,0.00,Wunderground v.1.15,2013-09-21 16:40:00,
2013-09-21 12:46:00,76.3,70.8,29.60,South,181,0.0,0.0,83,0.00,,,0.00,Wunderground v.1.15,2013-09-21 16:46:00,
2013-09-21 12:52:00,77.0,71.1,29.60,NE,39,0.0,0.0,82,0.00,,,0.00,Wunderground v.1.15,2013-09-21 16:52:00,
2013-09-21 12:58:00,77.0,70.7,29.60,ENE,57,0.0,0.0,81,0.00,,,0.00,Wunderground v.1.15,2013-09-21 16:58:00,
2013-09-21 13:04:00,76.8,70.5,29.60,North,11,0.0,1.0,81,0.00,,,0.00,Wunderground v.1.15,2013-09-21 17:04:00,
2013-09-21 13:10:00,77.0,70.7,29.60,NW,311,0.0,1.0,81,0.00,,,0.00,Wunderground v.1.15,2013-09-21 17:10:00,
2013-09-21 13:16:00,77.0,70.7,29.59,ENE,60,0.0,1.0,81,0.00,,,0.00,Wunderground v.1.15,2013-09-21 17:16:00,
2013-09-21 13:22:00,77.0,71.1,29.59,ENE,59,0.0,0.0,82,0.00,,,0.00,Wunderground v.1.15,2013-09-21 17:22:00,
2013-09-21 13:28:00,76.9,71.0,29.59,ENE,60,0.0,0.0,82,0.00,,,0.00,Wunderground v.1.15,2013-09-21 17:28:00,
2013-09-21 13:34:00,76.9,70.6,29.59,NNW,328,0.0,0.0,81,0.00,,,0.00,Wunderground v.1.15,2013-09-21 17:34:00,
2013-09-21 13:40:00,77.0,71.1,29.58,NW,326,0.0,0.0,82,0.00,,,0.00,Wunderground v.1.15,2013-09-21 17:40:00,
2013-09-21 13:46:00,76.8,70.9,29.58,NW,326,0.0,0.0,82,0.00,,,0.00,Wunderground v.1.15,2013-09-21 17:46:00,
2013-09-21 13:52:00,76.5,70.6,29.57,NNW,330,0.0,0.0,82,0.00,,,0.00,Wunderground v.1.15,2013-09-21 17:52:00,
2013-09-21 13:58:00,76.8,70.9,29.57,NNW,330,0.0,0.0,82,0.00,,,0.00,Wunderground v.1.15,2013-09-21 17:58:00,
2013-09-21 14:04:00,77.2,71.3,29.57,NNW,330,0.0,0.0,82,0.00,,,0.00,Wunderground v.1.15,2013-09-21 18:04:00,
2013-09-21 14:10:00,77.4,70.7,29.56,North,349,0.0,0.0,80,0.00,,,0.00,Wunderground v.1.15,2013-09-21 18:10:00,
2013-09-21 14:16:00,77.7,71.8,29.56,NE,52,0.0,0.0,82,0.00,,,0.00,Wunderground v.1.15,2013-09-21 18:16:00,
2013-09-21 14:22:00,77.7,71.0,29.56,NE,53,0.0,0.0,80,0.00,,,0.00,Wunderground v.1.15,2013-09-21 18:22:00,
2013-09-21 14:28:00,77.6,71.3,29.56,NE,52,0.0,0.0,81,0.00,,,0.00,Wunderground v.1.15,2013-09-21 18:28:00,
2013-09-21 14:34:00,77.5,70.8,29.56,East,101,0.0,0.0,80,0.00,,,0.00,Wunderground v.1.15,2013-09-21 18:34:00,
2013-09-21 14:40:00,77.8,71.5,29.55,SE,141,0.0,0.0,81,0.00,,,0.00,Wunderground v.1.15,2013-09-21 18:40:00,
2013-09-21 14:46:00,78.2,71.2,29.55,SW,219,0.0,1.0,79,0.00,,,0.00,Wunderground v.1.15,2013-09-21 18:46:00,
2013-09-21 14:52:00,78.6,71.2,29.54,ENE,60,1.0,1.0,78,0.00,,,0.00,Wunderground v.1.15,2013-09-21 18:52:00,
2013-09-21 14:58:00,78.6,71.5,29.54,ENE,65,0.0,1.0,79,0.00,,,0.00,Wunderground v.1.15,2013-09-21 18:58:00,
2013-09-21 15:04:00,78.6,71.5,29.54,ENE,75,0.0,0.0,79,0.00,,,0.00,Wunderground v.1.15,2013-09-21 19:04:00,
2013-09-21 15:10:00,78.5,71.8,29.54,NNW,338,0.0,2.0,80,0.00,,,0.00,Wunderground v.1.15,2013-09-21 19:10:00,
2013-09-21 15:16:00,78.2,71.2,29.54,ENE,68,0.0,2.0,79,0.00,,,0.00,Wunderground v.1.15,2013-09-21 19:16:00,
2013-09-21 15:22:00,78.1,70.7,29.54,ENE,59,0.0,0.0,78,0.00,,,0.00,Wunderground v.1.15,2013-09-21 19:22:00,
2013-09-21 15:28:00,78.0,71.0,29.53,ENE,59,0.0,0.0,79,0.00,,,0.00,Wunderground v.1.15,2013-09-21 19:28:00,
2013-09-21 15:34:00,77.7,71.0,29.53,ENE,61,0.0,0.0,80,0.00,,,0.00,Wunderground v.1.15,2013-09-21 19:34:00,
2013-09-21 15:40:00,77.4,71.1,29.53,ENE,61,0.0,0.0,81,0.00,,,0.00,Wunderground v.1.15,2013-09-21 19:40:00,
2013-09-21 15:46:00,77.3,71.4,29.52,ENE,61,0.0,0.0,82,0.00,,,0.00,Wunderground v.1.15,2013-09-21 19:46:00,
2013-09-21 15:52:00,77.0,71.1,29.52,ENE,61,0.0,0.0,82,0.00,,,0.00,Wunderground v.1.15,2013-09-21 19:52:00,
2013-09-21 15:58:00,76.9,71.0,29.52,NE,54,0.0,0.0,82,0.00,,,0.00,Wunderground v.1.15,2013-09-21 19:58:00,
2013-09-21 16:04:00,76.8,70.5,29.52,NE,54,0.0,0.0,81,0.00,,,0.00,Wunderground v.1.15,2013-09-21 20:04:00,
2013-09-21 16:10:00,76.7,70.8,29.52,NE,54,0.0,0.0,82,0.00,,,0.00,Wunderground v.1.15,2013-09-21 20:10:00,
2013-09-21 16:16:00,76.6,71.0,29.52,NE,54,0.0,1.0,83,0.00,,,0.00,Wunderground v.1.15,2013-09-21 20:16:00,
2013-09-21 16:22:00,76.2,71.0,29.52,West,273,0.0,0.0,84,0.00,,,0.00,Wunderground v.1.15,2013-09-21 20:22:00,
2013-09-21 16:28:00,75.4,70.6,29.53,West,272,0.0,0.0,85,0.00,,,0.01,Wunderground v.1.15,2013-09-21 20:28:00,
2013-09-21 16:34:00,74.6,70.1,29.52,West,274,0.0,0.0,86,0.00,,,0.01,Wunderground v.1.15,2013-09-21 20:34:00,
2013-09-21 16:40:00,74.1,70.0,29.52,West,274,0.0,0.0,87,0.00,,,0.01,Wunderground v.1.15,2013-09-21 20:40:00,
2013-09-21 16:46:00,73.7,69.6,29.52,West,273,0.0,0.0,87,0.00,,,0.01,Wunderground v.1.15,2013-09-21 20:46:00,
2013-09-21 16:52:00,73.5,69.4,29.52,West,272,0.0,0.0,87,0.00,,,0.01,Wunderground v.1.15,2013-09-21 20:52:00,
2013-09-21 16:58:00,73.3,69.2,29.52,West,273,0.0,0.0,87,0.00,,,0.02,Wunderground v.1.15,2013-09-21 20:58:00,
2013-09-21 17:04:00,73.1,69.0,29.52,West,273,0.0,0.0,87,0.00,,,0.02,Wunderground v.1.15,2013-09-21 21:04:00,
2013-09-21 17:10:00,72.9,68.8,29.52,West,273,0.0,0.0,87,0.00,,,0.02,Wunderground v.1.15,2013-09-21 21:10:00,
2013-09-21 17:16:00,72.8,68.7,29.52,West,272,0.0,0.0,87,0.00,,,0.03,Wunderground v.1.15,2013-09-21 21:16:00,
2013-09-21 17:22:00,72.7,68.3,29.52,West,272,0.0,0.0,86,0.00,,,0.03,Wunderground v.1.15,2013-09-21 21:22:00,
2013-09-21 17:28:00,72.6,68.2,29.52,West,273,0.0,0.0,86,0.00,,,0.03,Wunderground v.1.15,2013-09-21 21:28:00,
2013-09-21 17:34:00,72.4,68.0,29.52,West,273,0.0,0.0,86,0.00,,,0.03,Wunderground v.1.15,2013-09-21 21:34:00,
2013-09-21 17:40:00,72.3,67.9,29.52,West,273,0.0,0.0,86,0.00,,,0.03,Wunderground v.1.15,2013-09-21 21:40:00,
2013-09-21 17:46:00,72.2,67.4,29.51,West,272,0.0,0.0,85,0.00,,,0.03,Wunderground v.1.15,2013-09-21 21:46:00,
2013-09-21 17:52:00,72.1,67.3,29.51,West,273,0.0,0.0,85,0.00,,,0.03,Wunderground v.1.15,2013-09-21 21:52:00,
2013-09-21 17:58:00,72.1,67.3,29.51,West,273,0.0,0.0,85,0.00,,,0.04,Wunderground v.1.15,2013-09-21 21:58:00,
2013-09-21 18:04:00,72.0,67.2,29.51,West,272,0.0,0.0,85,0.00,,,0.04,Wunderground v.1.15,2013-09-21 22:04:00,
2013-09-21 18:10:00,71.9,67.1,29.51,West,273,0.0,0.0,85,0.00,,,0.04,Wunderground v.1.15,2013-09-21 22:10:00,
2013-09-21 18:16:00,71.8,67.0,29.51,West,272,0.0,0.0,85,0.00,,,0.04,Wunderground v.1.15,2013-09-21 22:16:00,
2013-09-21 18:22:00,71.7,66.6,29.51,West,273,0.0,0.0,84,0.00,,,0.04,Wunderground v.1.15,2013-09-21 22:22:00,
2013-09-21 18:28:00,71.6,66.5,29.51,West,272,0.0,0.0,84,0.00,,,0.04,Wunderground v.1.15,2013-09-21 22:28:00,
2013-09-21 18:34:00,71.5,66.4,29.51,West,272,0.0,0.0,84,0.00,,,0.05,Wunderground v.1.15,2013-09-21 22:34:00,
2013-09-21 18:40:00,71.4,66.3,29.51,West,273,0.0,0.0,84,0.00,,,0.05,Wunderground v.1.15,2013-09-21 22:40:00,
2013-09-21 18:46:00,71.3,66.2,29.50,West,273,0.0,0.0,84,0.00,,,0.05,Wunderground v.1.15,2013-09-21 22:46:00,
2013-09-21 18:52:00,71.2,66.1,29.50,West,273,0.0,0.0,84,0.00,,,0.05,Wunderground v.1.15,2013-09-21 22:52:00,
2013-09-21 18:58:00,71.1,66.0,29.51,West,272,0.0,0.0,84,0.00,,,0.05,Wunderground v.1.15,2013-09-21 22:58:00,
2013-09-21 19:04:00,71.0,65.9,29.51,West,273,0.0,0.0,84,0.00,,,0.05,Wunderground v.1.15,2013-09-21 23:04:00,
2013-09-21 19:10:00,70.9,65.5,29.51,West,272,0.0,0.0,83,0.00,,,0.05,Wunderground v.1.15,2013-09-21 23:10:00,
2013-09-21 19:16:00,70.9,65.5,29.51,West,272,0.0,0.0,83,0.00,,,0.05,Wunderground v.1.15,2013-09-21 23:16:00,
2013-09-21 19:22:00,70.8,65.4,29.51,West,272,0.0,0.0,83,0.00,,,0.05,Wunderground v.1.15,2013-09-21 23:22:00,
2013-09-21 19:28:00,70.8,65.4,29.51,West,273,0.0,0.0,83,0.00,,,0.05,Wunderground v.1.15,2013-09-21 23:28:00,
2013-09-21 19:34:00,71.0,65.6,29.51,West,272,0.0,0.0,83,0.00,,,0.05,Wunderground v.1.15,2013-09-21 23:34:00,
2013-09-21 19:40:00,71.0,65.6,29.51,West,272,0.0,0.0,83,0.00,,,0.05,Wunderground v.1.15,2013-09-21 23:40:00,
2013-09-21 19:46:00,70.8,65.4,29.51,West,272,0.0,0.0,83,0.00,,,0.05,Wunderground v.1.15,2013-09-21 23:46:00,
2013-09-21 19:52:00,70.7,65.3,29.51,West,273,0.0,0.0,83,0.00,,,0.05,Wunderground v.1.15,2013-09-21 23:52:00,
2013-09-21 19:58:00,70.6,65.2,29.51,West,272,0.0,0.0,83,0.00,,,0.05,Wunderground v.1.15,2013-09-21 23:58:00,
2013-09-21 20:04:00,70.6,65.2,29.52,West,272,0.0,0.0,83,0.00,,,0.05,Wunderground v.1.15,2013-09-22 00:04:00,
2013-09-21 20:10:00,70.6,65.2,29.52,West,273,0.0,0.0,83,0.00,,,0.05,Wunderground v.1.15,2013-09-22 00:10:00,
2013-09-21 20:16:00,70.5,65.1,29.51,West,273,0.0,0.0,83,0.00,,,0.05,Wunderground v.1.15,2013-09-22 00:16:00,
2013-09-21 20:22:00,70.4,65.0,29.52,West,272,0.0,0.0,83,0.00,,,0.05,Wunderground v.1.15,2013-09-22 00:22:00,
2013-09-21 20:28:00,70.4,65.0,29.52,West,273,0.0,0.0,83,0.00,,,0.06,Wunderground v.1.15,2013-09-22 00:28:00,
2013-09-21 20:34:00,70.3,64.9,29.52,West,272,0.0,0.0,83,0.00,,,0.06,Wunderground v.1.15,2013-09-22 00:34:00,
2013-09-21 20:40:00,70.3,64.9,29.51,West,273,0.0,0.0,83,0.00,,,0.06,Wunderground v.1.15,2013-09-22 00:40:00,
2013-09-21 20:46:00,70.3,64.9,29.51,West,273,0.0,0.0,83,0.00,,,0.06,Wunderground v.1.15,2013-09-22 00:46:00,
2013-09-21 20:52:00,70.3,64.9,29.51,West,272,0.0,0.0,83,0.00,,,0.06,Wunderground v.1.15,2013-09-22 00:52:00,
2013-09-21 20:58:00,70.3,64.9,29.52,West,272,0.0,0.0,83,0.00,,,0.06,Wunderground v.1.15,2013-09-22 00:58:00,
2013-09-21 21:04:00,70.2,64.8,29.52,West,272,0.0,0.0,83,0.00,,,0.06,Wunderground v.1.15,2013-09-22 01:04:00,
2013-09-21 21:10:00,70.2,64.8,29.51,West,272,0.0,0.0,83,0.00,,,0.07,Wunderground v.1.15,2013-09-22 01:10:00,
2013-09-21 21:16:00,70.2,64.4,29.51,West,273,0.0,0.0,82,0.00,,,0.07,Wunderground v.1.15,2013-09-22 01:16:00,
2013-09-21 21:22:00,70.2,64.4,29.51,West,272,0.0,0.0,82,0.04,,,0.08,Wunderground v.1.15,2013-09-22 01:22:00,
2013-09-21 21:28:00,70.2,64.4,29.51,West,273,0.0,0.0,82,0.04,,,0.08,Wunderground v.1.15,2013-09-22 01:28:00,
2013-09-21 21:34:00,70.2,64.4,29.51,West,273,0.0,0.0,82,0.04,,,0.08,Wunderground v.1.15,2013-09-22 01:34:00,
2013-09-21 21:40:00,70.1,64.3,29.51,West,273,0.0,0.0,82,0.00,,,0.08,Wunderground v.1.15,2013-09-22 01:40:00,
2013-09-21 21:46:00,70.1,64.3,29.51,West,273,0.0,0.0,82,0.00,,,0.08,Wunderground v.1.15,2013-09-22 01:46:00,
2013-09-21 21:52:00,70.0,64.2,29.51,West,273,0.0,0.0,82,0.37,,,0.10,Wunderground v.1.15,2013-09-22 01:52:00,
2013-09-21 21:58:00,70.0,64.2,29.52,West,272,0.0,0.0,82,0.28,,,0.15,Wunderground v.1.15,2013-09-22 01:58:00,
2013-09-21 22:04:00,70.0,64.2,29.52,West,272,0.0,0.0,82,0.23,,,0.17,Wunderground v.1.15,2013-09-22 02:04:00,
2013-09-21 22:10:00,70.0,64.2,29.51,West,272,0.0,0.0,82,0.08,,,0.17,Wunderground v.1.15,2013-09-22 02:10:00,
2013-09-21 22:16:00,69.9,64.2,29.52,West,272,0.0,0.0,82,0.05,,,0.18,Wunderground v.1.15,2013-09-22 02:16:00,
2013-09-21 22:22:00,70.0,64.2,29.52,West,271,0.0,0.0,82,0.22,,,0.20,Wunderground v.1.15,2013-09-22 02:22:00,
2013-09-21 22:28:00,70.0,64.2,29.52,West,271,0.0,0.0,82,0.12,,,0.21,Wunderground v.1.15,2013-09-22 02:28:00,
2013-09-21 22:34:00,69.9,64.2,29.52,West,271,0.0,0.0,82,0.25,,,0.23,Wunderground v.1.15,2013-09-22 02:34:00,
2013-09-21 22:40:00,69.9,64.2,29.51,West,271,0.0,0.0,82,0.33,,,0.26,Wunderground v.1.15,2013-09-22 02:40:00,
2013-09-21 22:46:00,69.5,64.1,29.51,SSW,204,0.0,0.0,83,0.37,,,0.36,Wunderground v.1.15,2013-09-22 02:46:00,
2013-09-21 22:52:00,68.9,63.5,29.51,SSW,195,0.0,1.0,83,0.29,,,0.40,Wunderground v.1.15,2013-09-22 02:52:00,
2013-09-21 22:58:00,68.4,63.0,29.51,SE,126,1.0,2.0,83,0.67,,,0.44,Wunderground v.1.15,2013-09-22 02:58:00,
2013-09-21 23:04:00,68.2,62.8,29.52,SW,214,1.0,2.0,83,0.73,,,0.50,Wunderground v.1.15,2013-09-22 03:04:00,
2013-09-21 23:10:00,67.8,62.8,29.53,SW,221,1.0,4.0,84,1.67,,,0.67,Wunderground v.1.15,2013-09-22 03:10:00,
2013-09-21 23:16:00,67.1,62.1,29.53,SSE,160,0.0,4.0,84,0.62,,,0.76,Wunderground v.1.15,2013-09-22 03:16:00,
2013-09-21 23:22:00,66.8,61.8,29.53,SW,228,0.0,0.0,84,0.18,,,0.78,Wunderground v.1.15,2013-09-22 03:22:00,
2013-09-21 23:28:00,66.7,61.7,29.53,SW,228,0.0,0.0,84,0.11,,,0.79,Wunderground v.1.15,2013-09-22 03:28:00,
2013-09-21 23:34:00,66.6,61.6,29.53,SW,228,0.0,0.0,84,0.07,,,0.80,Wunderground v.1.15,2013-09-22 03:34:00,
2013-09-21 23:40:00,66.4,61.4,29.53,SW,228,0.0,0.0,84,0.10,,,0.81,Wunderground v.1.15,2013-09-22 03:40:00,
2013-09-21 23:46:00,66.2,61.2,29.53,SW,228,0.0,0.0,84,0.09,,,0.82,Wunderground v.1.15,2013-09-22 03:46:00,
2013-09-21 23:52:00,66.1,60.8,29.54,SW,228,0.0,0.0,83,0.10,,,0.83,Wunderground v.1.15,2013-09-22 03:52:00,
2013-09-21 23:58:00,66.0,60.7,29.53,SW,228,0.0,0.0,83,0.16,,,0.00,Wunderground v.1.15,2013-09-22 03:58:00,